Time,TemperatureF,DewpointF,PressureIn,WindDirection,WindDirectionDegrees,WindSpeedMPH,WindSpeedGustMPH,Humidity,HourlyPrecipIn,Conditions,Clouds,dailyrainin,SoftwareType,DateUTC
2013-09-22 00:10:00,60.5,52.0,25.43,SW,231,9.0,10.0,74,0.00,,,0.00,weatherlink.com 1.10,2013-09-22 06:10:00,
2013-09-22 00:25:00,60.1,52.0,25.43,SW,232,7.0,9.0,74,0.00,,,0.00,weatherlink.com 1.10,2013-09-22 06:25:00,
2013-09-22 00:40:00,58.9,51.0,25.43,WSW,243,7.0,8.0,76,0.00,,,0.00,weatherlink.com 1.10,2013-09-22 06:40:00,
2013-09-22 01:11:00,57.5,50.0,25.43,WSW,243,4.0,5.0,77,0.00,,,0.00,weatherlink.com 1.10,2013-09-22 07:11:00,
2013-09-22 01:41:00,57.7,51.0,25.42,SW,228,5.0,6.0,77,0.00,,,0.00,weatherlink.com 1.10,2013-09-22 07:41:00,
2013-09-22 01:56:00,57.3,51.0,25.42,SW,214,4.0,4.0,78,0.00,,,0.00,weatherlink.com 1.10,2013-09-22 07:56:00,
2013-09-22 02:11:00,57.8,51.0,25.42,SW,229,6.0,6.0,78,0.00,,,0.00,weatherlink.com 1.10,2013-09-22 08:11:00,
2013-09-22 02:26:00,57.4,51.0,25.42,WSW,249,5.0,6.0,79,0.00,,,0.00,weatherlink.com 1.10,2013-09-22 08:26:00,
2013-09-22 02:41:00,59.3,51.0,25.41,WSW,248,6.0,7.0,75,0.00,,,0.00,weatherlink.com 1.10,2013-09-22 08:41:00,
2013-09-22 02:56:00,59.0,51.0,25.41,SW,233,4.0,5.0,76,0.00,,,0.00,weatherlink.com 1.10,2013-09-22 08:56:00,
2013-09-22 03:11:00,57.4,51.0,25.40,WSW,239,5.0,5.0,79,0.00,,,0.00,weatherlink.com 1.10,2013-09-22 09:11:00,
2013-09-22 03:26:00,56.5,51.0,25.40,SW,225,4.0,4.0,81,0.00,,,0.00,weatherlink.com 1.10,2013-09-22 09:26:00,
2013-09-22 03:41:00,56.6,51.0,25.39,SW,219,3.0,4.0,81,0.00,,,0.00,weatherlink.com 1.10,2013-09-22 09:41:00,
2013-09-22 03:56:00,55.4,50.0,25.40,WSW,252,6.0,6.0,82,0.00,,,0.00,weatherlink.com 1.10,2013-09-22 09:56:00,
2013-09-22 04:11:00,54.2,50.0,25.39,WSW,255,4.0,5.0,84,0.00,,,0.00,weatherlink.com 1.10,2013-09-22 10:11:00,
2013-09-22 04:26:00,53.6,49.0,25.39,WSW,251,4.0,4.0,85,0.00,,,0.00,weatherlink.com 1.10,2013-09-22 10:26:00,
2013-09-22 04:41:00,53.6,49.0,25.39,West,261,5.0,5.0,85,0.00,,,0.00,weatherlink.com 1.10,2013-09-22 10:41:00,
2013-09-22 05:11:00,54.0,50.0,25.39,WSW,248,7.0,7.0,85,0.00,,,0.00,weatherlink.com 1.10,2013-09-22 11:11:00,
2013-09-22 05:26:00,53.4,49.0,25.39,West,269,5.0,7.0,86,0.00,,,0.00,weatherlink.com 1.10,2013-09-22 11:26:00,
2013-09-22 05:41:00,53.6,50.0,25.38,WSW,255,6.0,6.0,86,0.00,,,0.00,weatherlink.com 1.10,2013-09-22 11:41:00,
2013-09-22 05:56:00,53.3,49.0,25.39,WSW,257,4.0,6.0,86,0.00,,,0.00,weatherlink.com 1.10,2013-09-22 11:56:00,
2013-09-22 06:11:00,53.0,49.0,25.39,SW,236,4.0,4.0,87,0.00,,,0.00,weatherlink.com 1.10,2013-09-22 12:11:00,
2013-09-22 06:26:00,52.5,49.0,25.39,SE,128,1.0,2.0,87,0.00,,,0.00,weatherlink.com 1.10,2013-09-22 12:26:00,
2013-09-22 06:41:00,53.2,49.0,25.39,SSW,197,2.0,4.0,84,0.00,,,0.00,weatherlink.com 1.10,2013-09-22 12:41:00,
2013-09-22 06:56:00,52.7,48.0,25.39,ESE,118,3.0,3.0,85,0.00,,,0.00,weatherlink.com 1.10,2013-09-22 12:56:00,
2013-09-22 07:11:00,52.8,48.0,25.39,South,181,1.0,2.0,85,0.00,,,0.00,weatherlink.com 1.10,2013-09-22 13:11:00,
2013-09-22 07:26:00,53.3,49.0,25.39,South,184,3.0,3.0,84,0.00,,,0.00,weatherlink.com 1.10,2013-09-22 13:26:00,
2013-09-22 07:41:00,53.6,50.0,25.38,SSE,155,3.0,3.0,86,0.00,,,0.00,weatherlink.com 1.10,2013-09-22 13:41:00,
2013-09-22 07:56:00,56.5,51.0,25.39,SSE,158,1.0,6.0,81,0.00,,,0.00,weatherlink.com 1.10,2013-09-22 13:56:00,
2013-09-22 08:26:00,61.7,51.0,25.39,SW,217,7.0,7.0,67,0.00,,,0.00,weatherlink.com 1.10,2013-09-22 14:26:00,
2013-09-22 08:41:00,63.5,51.0,25.39,SSW,204,5.0,6.0,64,0.00,,,0.00,weatherlink.com 1.10,2013-09-22 14:41:00,
2013-09-22 08:57:00,66.5,51.0,25.39,SSE,162,8.0,9.0,58,0.00,,,0.00,weatherlink.com 1.10,2013-09-22 14:57:00,
2013-09-22 09:12:00,68.3,52.0,25.39,SSW,197,5.0,10.0,57,0.00,,,0.00,weatherlink.com 1.10,2013-09-22 15:12:00,
2013-09-22 09:27:00,69.1,53.0,25.39,South,169,7.0,13.0,56,0.00,,,0.00,weatherlink.com 1.10,2013-09-22 15:27:00,
2013-09-22 09:42:00,69.7,54.0,25.39,SE,124,7.0,11.0,58,0.00,,,0.00,weatherlink.com 1.10,2013-09-22 15:42:00,
2013-09-22 09:57:00,70.8,55.0,25.39,South,169,6.0,12.0,58,0.00,,,0.00,weatherlink.com 1.10,2013-09-22 15:57:00,
2013-09-22 10:12:00,71.1,55.0,25.39,SSW,205,6.0,11.0,58,0.00,,,0.00,weatherlink.com 1.10,2013-09-22 16:12:00,
2013-09-22 10:27:00,71.5,56.0,25.38,SSE,148,5.0,8.0,59,0.00,,,0.00,weatherlink.com 1.10,2013-09-22 16:27:00,
2013-09-22 10:42:00,72.7,56.0,25.39,SW,224,8.0,11.0,56,0.00,,,0.00,weatherlink.com 1.10,2013-09-22 16:42:00,
2013-09-22 10:57:00,74.0,55.0,25.38,South,186,3.0,9.0,52,0.00,,,0.00,weatherlink.com 1.10,2013-09-22 16:57:00,
2013-09-22 11:27:00,75.1,55.0,25.36,SE,145,2.0,9.0,50,0.00,,,0.00,weatherlink.com 1.10,2013-09-22 17:27:00,
2013-09-22 11:42:00,76.9,56.0,25.36,SSW,212,8.0,10.0,48,0.00,,,0.00,weatherlink.com 1.10,2013-09-22 17:42:00,
2013-09-22 11:57:00,79.1,53.0,25.35,WSW,256,6.0,8.0,40,0.00,,,0.00,weatherlink.com 1.10,2013-09-22 17:57:00,
2013-09-22 12:12:00,80.6,51.0,25.35,NW,311,0.0,7.0,35,0.00,,,0.00,weatherlink.com 1.10,2013-09-22 18:12:00,
2013-09-22 12:27:00,81.9,48.0,25.34,West,262,4.0,6.0,30,0.00,,,0.00,weatherlink.com 1.10,2013-09-22 18:27:00,
2013-09-22 12:42:00,83.9,47.0,25.34,ESE,109,7.0,7.0,28,0.00,,,0.00,weatherlink.com 1.10,2013-09-22 18:42:00,
2013-09-22 12:57:00,83.5,46.0,25.33,ENE,71,9.0,10.0,27,0.00,,,0.00,weatherlink.com 1.10,2013-09-22 18:57:00,
2013-09-22 13:12:00,83.6,46.0,25.33,WSW,258,2.0,6.0,27,0.00,,,0.00,weatherlink.com 1.10,2013-09-22 19:12:00,
2013-09-22 13:27:00,83.4,51.0,25.32,SSE,155,14.0,15.0,33,0.00,,,0.00,weatherlink.com 1.10,2013-09-22 19:27:00,
2013-09-22 13:43:00,82.8,52.0,25.31,SE,127,13.0,14.0,35,0.00,,,0.00,weatherlink.com 1.10,2013-09-22 19:43:00,
2013-09-22 13:58:00,81.7,53.0,25.31,ESE,108,13.0,18.0,37,0.00,,,0.00,weatherlink.com 1.10,2013-09-22 19:58:00,
2013-09-22 14:13:00,81.2,53.0,25.31,South,172,11.0,20.0,38,0.00,,,0.00,weatherlink.com 1.10,2013-09-22 20:13:00,
2013-09-22 14:28:00,82.4,48.0,25.30,SSE,150,10.0,19.0,30,0.00,,,0.00,weatherlink.com 1.10,2013-09-22 20:28:00,
2013-09-22 14:43:00,83.1,49.0,25.29,SSE,160,11.0,21.0,31,0.00,,,0.00,weatherlink.com 1.10,2013-09-22 20:43:00,
2013-09-22 14:58:00,84.5,52.0,25.29,South,188,15.0,28.0,32,0.00,,,0.00,weatherlink.com 1.10,2013-09-22 20:58:00,
2013-09-22 15:13:00,83.5,53.0,25.28,SE,139,11.0,24.0,35,0.00,,,0.00,weatherlink.com 1.10,2013-09-22 21:13:00,
2013-09-22 15:28:00,83.5,54.0,25.27,SSE,149,9.0,18.0,36,0.00,,,0.00,weatherlink.com 1.10,2013-09-22 21:28:00,
2013-09-22 15:43:00,83.6,53.0,25.27,SSE,158,12.0,19.0,35,0.00,,,0.00,weatherlink.com 1.10,2013-09-22 21:43:00,
2013-09-22 15:58:00,85.2,52.0,25.26,SSE,165,12.0,18.0,32,0.00,,,0.00,weatherlink.com 1.10,2013-09-22 21:58:00,
2013-09-22 16:13:00,84.2,50.0,25.26,SSE,150,13.0,18.0,31,0.00,,,0.00,weatherlink.com 1.10,2013-09-22 22:13:00,
2013-09-22 16:28:00,83.6,49.0,25.25,SSE,163,12.0,16.0,30,0.00,,,0.00,weatherlink.com 1.10,2013-09-22 22:28:00,
2013-09-22 16:43:00,83.2,49.0,25.25,SSE,157,8.0,17.0,30,0.00,,,0.00,weatherlink.com 1.10,2013-09-22 22:43:00,
2013-09-22 16:58:00,83.3,50.0,25.24,SSE,162,7.0,12.0,31,0.00,,,0.00,weatherlink.com 1.10,2013-09-22 22:58:00,
2013-09-22 17:13:00,82.9,56.0,25.23,SE,124,17.0,23.0,40,0.00,,,0.00,weatherlink.com 1.10,2013-09-22 23:13:00,
2013-09-22 17:28:00,80.6,57.0,25.22,SE,134,16.0,27.0,44,0.00,,,0.00,weatherlink.com 1.10,2013-09-22 23:28:00,
2013-09-22 17:43:00,79.1,57.0,25.22,SE,133,19.0,23.0,46,0.00,,,0.00,weatherlink.com 1.10,2013-09-22 23:43:00,
2013-09-22 18:13:00,77.5,57.0,25.21,SE,127,17.0,18.0,49,0.00,,,0.00,weatherlink.com 1.10,2013-09-23 00:13:00,
2013-09-22 18:28:00,76.7,56.0,25.21,ESE,120,12.0,21.0,49,0.00,,,0.00,weatherlink.com 1.10,2013-09-23 00:28:00,
2013-09-22 18:43:00,76.0,54.0,25.21,SE,144,14.0,17.0,47,0.00,,,0.00,weatherlink.com 1.10,2013-09-23 00:43:00,
2013-09-22 18:58:00,74.8,51.0,25.24,SW,236,21.0,32.0,43,0.00,,,0.00,weatherlink.com 1.10,2013-09-23 00:58:00,
2013-09-22 19:13:00,67.6,53.0,25.26,SW,232,17.0,24.0,60,0.03,,,0.03,weatherlink.com 1.10,2013-09-23 01:13:00,
2013-09-22 19:43:00,59.2,55.0,25.26,NW,312,18.0,27.0,87,0.25,,,0.25,weatherlink.com 1.10,2013-09-23 01:43:00,
2013-09-22 19:58:00,58.0,54.0,25.25,NNW,330,21.0,28.0,87,0.26,,,0.26,weatherlink.com 1.10,2013-09-23 01:58:00,
2013-09-22 20:13:00,57.8,54.0,25.27,NNW,336,13.0,24.0,87,0.23,,,0.26,weatherlink.com 1.10,2013-09-23 02:13:00,
2013-09-22 20:28:00,58.4,55.0,25.29,NW,317,19.0,40.0,88,0.21,,,0.29,weatherlink.com 1.10,2013-09-23 02:28:00,
2013-09-22 20:43:00,57.9,56.0,25.29,NNW,339,6.0,19.0,92,0.06,,,0.32,weatherlink.com 1.10,2013-09-23 02:43:00,
2013-09-22 20:58:00,58.5,55.0,25.29,NNW,342,14.0,25.0,87,0.08,,,0.34,weatherlink.com 1.10,2013-09-23 02:58:00,
2013-09-22 21:13:00,58.4,54.0,25.29,NNW,338,6.0,15.0,85,0.08,,,0.34,weatherlink.com 1.10,2013-09-23 03:13:00,
2013-09-22 21:28:00,58.2,55.0,25.31,NW,318,6.0,11.0,88,0.05,,,0.34,weatherlink.com 1.10,2013-09-23 03:28:00,
2013-09-22 21:44:00,58.4,55.0,25.30,NNW,335,11.0,13.0,87,0.02,,,0.34,weatherlink.com 1.10,2013-09-23 03:44:00,
2013-09-22 21:59:00,58.5,54.0,25.30,West,260,5.0,8.0,86,0.00,,,0.34,weatherlink.com 1.10,2013-09-23 03:59:00,
2013-09-22 22:29:00,58.0,55.0,25.32,WNW,294,12.0,16.0,88,0.00,,,0.34,weatherlink.com 1.10,2013-09-23 04:29:00,
2013-09-22 22:44:00,57.8,54.0,25.32,West,268,15.0,18.0,86,0.01,,,0.35,weatherlink.com 1.10,2013-09-23 04:44:00,
2013-09-22 23:14:00,56.8,53.0,25.29,NW,318,11.0,18.0,86,0.01,,,0.35,weatherlink.com 1.10,2013-09-23 05:14:00,
2013-09-22 23:29:00,56.5,53.0,25.27,NNW,342,12.0,15.0,87,0.01,,,0.35,weatherlink.com 1.10,2013-09-23 05:29:00,
2013-09-22 23:44:00,56.4,53.0,25.26,NNE,29,6.0,11.0,87,0.00,,,0.35,weatherlink.com 1.10,2013-09-23 05:44:00,
2013-09-22 23:59:00,56.1,52.0,25.25,NNE,22,8.0,9.0,87,0.00,,,0.35,weatherlink.com 1.10,2013-09-23 05:59:00,